Time,TemperatureF,DewpointF,PressureIn,WindDirection,WindDirectionDegrees,WindSpeedMPH,WindSpeedGustMPH,Humidity,HourlyPrecipIn,Conditions,Clouds,dailyrainin,SoftwareType,DateUTC
2013-04-21 00:02:00,45.1,32.2,25.10,North,-999,0.0,0.0,60,0.00,,,-99.99,FreeWX 2.04,2013-04-21 06:02:00,
2013-04-21 00:07:00,45.1,32.2,25.10,North,-999,0.0,0.0,60,0.00,,,-99.99,FreeWX 2.04,2013-04-21 06:07:00,
2013-04-21 00:13:00,45.9,32.4,25.10,North,-999,0.0,0.0,59,0.00,,,-99.99,FreeWX 2.04,2013-04-21 06:13:00,
2013-04-21 00:18:00,46.0,32.2,25.10,North,-999,0.0,0.0,58,0.00,,,-99.99,FreeWX 2.04,2013-04-21 06:18:00,
2013-04-21 00:23:00,46.2,31.8,25.10,North,-999,0.0,0.0,57,0.00,,,-99.99,FreeWX 2.04,2013-04-21 06:23:00,
2013-04-21 00:28:00,46.0,31.6,25.10,North,356,1.0,4.9,57,0.00,,,-99.99,FreeWX 2.04,2013-04-21 06:28:00,
2013-04-21 00:33:00,45.5,32.0,25.10,North,5,2.0,4.0,59,0.00,,,-99.99,FreeWX 2.04,2013-04-21 06:33:00,
2013-04-21 00:38:00,44.8,31.8,25.13,North,-999,0.0,0.0,60,0.00,,,-99.99,FreeWX 2.04,2013-04-21 06:38:00,
2013-04-21 00:43:00,44.1,31.8,25.13,North,-999,0.0,4.9,62,0.00,,,-99.99,FreeWX 2.04,2013-04-21 06:43:00,
2013-04-21 00:48:00,44.6,32.7,25.13,NNE,16,2.0,4.5,63,0.00,,,-99.99,FreeWX 2.04,2013-04-21 06:48:00,
2013-04-21 00:53:00,44.2,32.9,25.13,NNE,23,1.0,0.0,64,0.00,,,-99.99,FreeWX 2.04,2013-04-21 06:53:00,
2013-04-21 00:58:00,43.3,32.4,25.13,North,-999,0.0,0.0,65,0.00,,,-99.99,FreeWX 2.04,2013-04-21 06:58:00,
2013-04-21 01:03:00,42.8,32.2,25.13,North,-999,0.0,0.0,66,0.00,,,-99.99,FreeWX 2.04,2013-04-21 07:03:00,
2013-04-21 01:08:00,42.8,32.5,25.13,North,-999,0.0,0.0,67,0.00,,,-99.99,FreeWX 2.04,2013-04-21 07:08:00,
2013-04-21 01:13:00,42.8,33.3,25.13,North,-999,0.0,0.0,69,0.00,,,-99.99,FreeWX 2.04,2013-04-21 07:13:00,
2013-04-21 01:18:00,43.0,33.4,25.13,North,-999,0.0,0.0,69,0.00,,,-99.99,FreeWX 2.04,2013-04-21 07:18:00,
2013-04-21 01:23:00,43.0,33.4,25.13,North,-999,0.0,0.0,69,0.00,,,-99.99,FreeWX 2.04,2013-04-21 07:23:00,
2013-04-21 01:28:00,43.5,33.3,25.13,North,-999,0.0,3.6,67,0.00,,,-99.99,FreeWX 2.04,2013-04-21 07:28:00,
2013-04-21 01:33:00,43.5,32.9,25.13,North,-999,0.0,0.0,66,0.00,,,-99.99,FreeWX 2.04,2013-04-21 07:33:00,
2013-04-21 01:38:00,43.7,32.7,25.13,North,-999,0.0,0.0,65,0.00,,,-99.99,FreeWX 2.04,2013-04-21 07:38:00,
2013-04-21 01:43:00,43.9,32.5,25.13,North,-999,0.0,0.0,64,0.00,,,-99.99,FreeWX 2.04,2013-04-21 07:43:00,
2013-04-21 01:48:00,44.1,32.4,25.13,North,-999,0.0,0.0,63,0.00,,,-99.99,FreeWX 2.04,2013-04-21 07:48:00,
2013-04-21 01:53:00,44.1,31.5,25.13,North,-999,0.0,3.6,61,0.00,,,-99.99,FreeWX 2.04,2013-04-21 07:53:00,
2013-04-21 01:58:00,43.7,31.1,25.13,North,-999,0.0,0.0,61,0.00,,,-99.99,FreeWX 2.04,2013-04-21 07:58:00,
2013-04-21 02:03:00,43.3,30.7,25.13,North,-999,0.0,2.7,61,0.00,,,-99.99,FreeWX 2.04,2013-04-21 08:03:00,
2013-04-21 02:08:00,43.0,30.4,25.13,North,-999,0.0,0.0,61,0.00,,,-99.99,FreeWX 2.04,2013-04-21 08:08:00,
2013-04-21 02:13:00,43.0,30.4,25.13,North,-999,0.0,0.0,61,0.00,,,-99.99,FreeWX 2.04,2013-04-21 08:13:00,
2013-04-21 02:18:00,42.4,30.4,25.13,North,-999,0.0,0.0,62,0.00,,,-99.99,FreeWX 2.04,2013-04-21 08:18:00,
2013-04-21 02:23:00,42.1,30.4,25.13,North,-999,0.0,3.1,63,0.00,,,-99.99,FreeWX 2.04,2013-04-21 08:23:00,
2013-04-21 02:28:00,42.4,30.4,25.13,North,-999,0.0,4.9,62,0.00,,,-99.99,FreeWX 2.04,2013-04-21 08:28:00,
2013-04-21 02:33:00,42.4,30.0,25.13,North,-999,0.0,3.1,61,0.00,,,-99.99,FreeWX 2.04,2013-04-21 08:33:00,
2013-04-21 02:38:00,42.1,30.0,25.13,North,-999,0.0,0.0,62,0.00,,,-99.99,FreeWX 2.04,2013-04-21 08:38:00,
2013-04-21 02:43:00,42.1,30.0,25.13,North,-999,0.0,0.0,62,0.00,,,-99.99,FreeWX 2.04,2013-04-21 08:43:00,
2013-04-21 02:48:00,42.3,30.2,25.13,North,-999,0.0,2.7,62,0.00,,,-99.99,FreeWX 2.04,2013-04-21 08:48:00,
2013-04-21 02:53:00,42.4,30.0,25.13,North,-999,0.0,2.7,61,0.00,,,-99.99,FreeWX 2.04,2013-04-21 08:53:00,
2013-04-21 02:58:00,42.3,29.8,25.13,North,-999,0.0,2.7,61,0.00,,,-99.99,FreeWX 2.04,2013-04-21 08:58:00,
2013-04-21 03:03:00,42.3,29.8,25.13,North,-999,0.0,4.9,61,0.00,,,-99.99,FreeWX 2.04,2013-04-21 09:03:00,
2013-04-21 03:08:00,42.6,29.3,25.13,ESE,116,3.0,8.3,59,0.00,,,-99.99,FreeWX 2.04,2013-04-21 09:08:00,
2013-04-21 03:13:00,42.8,29.1,25.13,ESE,109,4.0,7.4,58,0.00,,,-99.99,FreeWX 2.04,2013-04-21 09:13:00,
2013-04-21 03:18:00,42.6,28.4,25.13,ESE,104,3.0,6.7,57,0.00,,,-99.99,FreeWX 2.04,2013-04-21 09:18:00,
2013-04-21 03:23:00,42.4,28.2,25.13,ESE,113,1.0,3.1,57,0.00,,,-99.99,FreeWX 2.04,2013-04-21 09:23:00,
2013-04-21 03:28:00,41.9,28.2,25.13,North,-999,0.0,0.0,58,0.00,,,-99.99,FreeWX 2.04,2013-04-21 09:28:00,
2013-04-21 03:33:00,41.5,28.2,25.13,North,-999,0.0,0.0,59,0.00,,,-99.99,FreeWX 2.04,2013-04-21 09:33:00,
2013-04-21 03:38:00,41.4,28.6,25.13,North,-999,0.0,0.0,60,0.00,,,-99.99,FreeWX 2.04,2013-04-21 09:38:00,
2013-04-21 03:43:00,41.4,28.6,25.13,North,-999,0.0,2.7,60,0.00,,,-99.99,FreeWX 2.04,2013-04-21 09:43:00,
2013-04-21 03:49:00,41.5,29.1,25.13,North,-999,0.0,0.0,61,0.00,,,-99.99,FreeWX 2.04,2013-04-21 09:49:00,
2013-04-21 03:54:00,41.0,28.9,25.13,North,-999,0.0,0.0,62,0.00,,,-99.99,FreeWX 2.04,2013-04-21 09:54:00,
2013-04-21 03:59:00,40.8,29.3,25.13,North,-999,0.0,0.0,63,0.00,,,-99.99,FreeWX 2.04,2013-04-21 09:59:00,
2013-04-21 04:04:00,40.6,29.8,25.13,North,-999,0.0,3.1,65,0.00,,,-99.99,FreeWX 2.04,2013-04-21 10:04:00,
2013-04-21 04:09:00,41.4,29.3,25.13,North,-999,0.0,3.1,62,0.00,,,-99.99,FreeWX 2.04,2013-04-21 10:09:00,
2013-04-21 04:14:00,39.9,28.8,25.13,North,-999,0.0,3.1,64,0.00,,,-99.99,FreeWX 2.04,2013-04-21 10:14:00,
2013-04-21 04:19:00,39.4,28.6,25.13,North,-999,0.0,2.7,65,0.00,,,-99.99,FreeWX 2.04,2013-04-21 10:19:00,
2013-04-21 04:24:00,39.4,29.3,25.13,North,-999,0.0,3.1,67,0.00,,,-99.99,FreeWX 2.04,2013-04-21 10:24:00,
2013-04-21 04:29:00,39.2,30.2,25.13,North,-999,0.0,3.6,70,0.00,,,-99.99,FreeWX 2.04,2013-04-21 10:29:00,
2013-04-21 04:34:00,39.4,30.7,25.13,North,-999,0.0,2.7,71,0.00,,,-99.99,FreeWX 2.04,2013-04-21 10:34:00,
2013-04-21 04:39:00,39.2,30.9,25.13,North,-999,0.0,3.1,72,0.00,,,-99.99,FreeWX 2.04,2013-04-21 10:39:00,
2013-04-21 04:44:00,39.2,30.6,25.13,North,-999,0.0,0.0,71,0.00,,,-99.99,FreeWX 2.04,2013-04-21 10:44:00,
2013-04-21 04:49:00,39.4,30.7,25.13,North,-999,0.0,5.8,71,0.00,,,-99.99,FreeWX 2.04,2013-04-21 10:49:00,
2013-04-21 04:54:00,39.9,31.3,25.13,NNE,22,2.0,4.5,71,0.00,,,-99.99,FreeWX 2.04,2013-04-21 10:54:00,
2013-04-21 04:59:00,41.7,33.4,25.13,NNW,345,2.0,4.5,72,0.00,,,-99.99,FreeWX 2.04,2013-04-21 10:59:00,
2013-04-21 05:04:00,40.8,31.5,25.13,North,354,2.0,3.6,69,0.00,,,-99.99,FreeWX 2.04,2013-04-21 11:04:00,
2013-04-21 05:09:00,38.8,29.1,25.13,NNE,18,1.0,3.1,68,0.00,,,-99.99,FreeWX 2.04,2013-04-21 11:09:00,
2013-04-21 05:14:00,38.1,29.3,25.13,North,-999,0.0,2.7,70,0.00,,,-99.99,FreeWX 2.04,2013-04-21 11:14:00,
2013-04-21 05:19:00,38.5,30.2,25.13,North,-999,0.0,2.7,72,0.00,,,-99.99,FreeWX 2.04,2013-04-21 11:19:00,
2013-04-21 05:24:00,39.6,31.6,25.16,North,-999,0.0,4.0,73,0.00,,,-99.99,FreeWX 2.04,2013-04-21 11:24:00,
2013-04-21 05:29:00,40.3,32.7,25.16,NNE,30,1.0,3.6,74,0.00,,,-99.99,FreeWX 2.04,2013-04-21 11:29:00,
2013-04-21 05:34:00,39.7,32.2,25.16,NNE,30,1.0,3.1,74,0.00,,,-99.99,FreeWX 2.04,2013-04-21 11:34:00,
2013-04-21 05:39:00,39.4,31.8,25.16,North,-999,0.0,3.1,74,0.00,,,-99.99,FreeWX 2.04,2013-04-21 11:39:00,
2013-04-21 05:44:00,39.9,32.7,25.16,NNE,30,1.0,3.6,75,0.00,,,-99.99,FreeWX 2.04,2013-04-21 11:44:00,
2013-04-21 05:49:00,38.8,31.3,25.16,NNE,30,2.0,3.6,74,0.00,,,-99.99,FreeWX 2.04,2013-04-21 11:49:00,
2013-04-21 05:54:00,38.8,31.6,25.16,NNE,23,1.0,4.9,75,0.00,,,-99.99,FreeWX 2.04,2013-04-21 11:54:00,
2013-04-21 05:59:00,39.0,31.8,25.16,North,-999,0.0,0.0,75,0.00,,,-99.99,FreeWX 2.04,2013-04-21 11:59:00,
2013-04-21 06:04:00,38.7,31.5,25.16,North,-999,0.0,0.0,75,0.00,,,-99.99,FreeWX 2.04,2013-04-21 12:04:00,
2013-04-21 06:09:00,38.7,31.5,25.16,North,-999,0.0,3.1,75,0.00,,,-99.99,FreeWX 2.04,2013-04-21 12:09:00,
2013-04-21 06:14:00,38.8,32.0,25.16,NNE,13,2.0,4.9,76,0.00,,,-99.99,FreeWX 2.04,2013-04-21 12:14:00,
2013-04-21 06:19:00,37.6,30.4,25.16,NNE,21,2.0,4.0,75,0.00,,,-99.99,FreeWX 2.04,2013-04-21 12:19:00,
2013-04-21 06:24:00,37.4,30.9,25.16,NNE,26,2.0,4.0,77,0.00,,,-99.99,FreeWX 2.04,2013-04-21 12:24:00,
2013-04-21 06:29:00,37.4,30.9,25.16,NNE,26,3.0,4.9,77,0.00,,,-99.99,FreeWX 2.04,2013-04-21 12:29:00,
2013-04-21 06:34:00,36.7,29.8,25.16,NNE,27,4.0,5.4,76,0.00,,,-99.99,FreeWX 2.04,2013-04-21 12:34:00,
2013-04-21 06:39:00,36.9,30.4,25.16,NNE,28,3.0,4.5,77,0.00,,,-99.99,FreeWX 2.04,2013-04-21 12:39:00,
2013-04-21 06:44:00,37.4,30.9,25.16,NNE,27,3.0,4.0,77,0.00,,,-99.99,FreeWX 2.04,2013-04-21 12:44:00,
2013-04-21 06:49:00,38.3,31.8,25.16,NNE,27,2.0,4.0,77,0.00,,,-99.99,FreeWX 2.04,2013-04-21 12:49:00,
2013-04-21 06:54:00,38.3,31.8,25.16,NNE,27,3.0,4.0,77,0.00,,,-99.99,FreeWX 2.04,2013-04-21 12:54:00,
2013-04-21 06:59:00,37.8,30.9,25.16,NNE,27,3.0,4.5,76,0.00,,,-99.99,FreeWX 2.04,2013-04-21 12:59:00,
2013-04-21 07:04:00,38.7,31.8,25.16,NNE,27,3.0,4.0,76,0.00,,,-99.99,FreeWX 2.04,2013-04-21 13:04:00,
2013-04-21 07:09:00,39.0,31.5,25.16,NNE,27,2.0,3.1,74,0.00,,,-99.99,FreeWX 2.04,2013-04-21 13:09:00,
2013-04-21 07:14:00,39.2,30.9,25.16,North,-999,0.0,0.0,72,0.00,,,-99.99,FreeWX 2.04,2013-04-21 13:14:00,
2013-04-21 07:19:00,39.0,30.4,25.16,North,-999,0.0,0.0,71,0.00,,,-99.99,FreeWX 2.04,2013-04-21 13:19:00,
2013-04-21 07:24:00,40.1,31.5,25.16,North,-999,0.0,0.0,71,0.00,,,-99.99,FreeWX 2.04,2013-04-21 13:24:00,
2013-04-21 07:29:00,41.4,32.4,25.16,North,-999,0.0,0.0,70,0.00,,,-99.99,FreeWX 2.04,2013-04-21 13:29:00,
2013-04-21 07:34:00,42.8,33.3,25.16,North,-999,0.0,0.0,69,0.00,,,-99.99,FreeWX 2.04,2013-04-21 13:34:00,
2013-04-21 07:39:00,43.7,32.7,25.16,North,-999,0.0,0.0,65,0.00,,,-99.99,FreeWX 2.04,2013-04-21 13:39:00,
2013-04-21 07:44:00,45.0,33.1,25.16,North,-999,0.0,0.0,63,0.00,,,-99.99,FreeWX 2.04,2013-04-21 13:44:00,
2013-04-21 07:49:00,45.9,32.4,25.16,North,-999,0.0,0.0,59,0.00,,,-99.99,FreeWX 2.04,2013-04-21 13:49:00,
2013-04-21 07:54:00,46.8,32.7,25.19,North,-999,0.0,0.0,58,0.00,,,-99.99,FreeWX 2.04,2013-04-21 13:54:00,
2013-04-21 07:59:00,45.5,32.0,25.19,North,-999,0.0,0.0,59,0.00,,,-99.99,FreeWX 2.04,2013-04-21 13:59:00,
2013-04-21 08:04:00,45.5,32.9,25.19,North,-999,0.0,0.0,61,0.00,,,-99.99,FreeWX 2.04,2013-04-21 14:04:00,
2013-04-21 08:09:00,46.0,33.8,25.19,NNE,22,1.0,5.4,62,0.00,,,-99.99,FreeWX 2.04,2013-04-21 14:09:00,
2013-04-21 08:14:00,44.8,32.5,25.19,North,357,3.0,6.9,62,0.00,,,-99.99,FreeWX 2.04,2013-04-21 14:14:00,
2013-04-21 08:19:00,44.8,32.9,25.19,NNW,336,5.0,7.4,63,0.00,,,-99.99,FreeWX 2.04,2013-04-21 14:19:00,
2013-04-21 08:24:00,44.1,30.7,25.19,NNW,332,5.0,8.7,59,0.00,,,-99.99,FreeWX 2.04,2013-04-21 14:24:00,
2013-04-21 08:29:00,44.8,31.8,25.19,NNW,336,6.0,8.3,60,0.00,,,-99.99,FreeWX 2.04,2013-04-21 14:29:00,
2013-04-21 08:34:00,45.0,32.4,25.19,NNW,344,5.0,7.8,61,0.00,,,-99.99,FreeWX 2.04,2013-04-21 14:34:00,
2013-04-21 08:39:00,44.8,31.8,25.19,NNW,342,5.0,8.7,60,0.00,,,-99.99,FreeWX 2.04,2013-04-21 14:39:00,
2013-04-21 08:44:00,45.0,32.0,25.19,NNW,338,6.0,8.7,60,0.00,,,-99.99,FreeWX 2.04,2013-04-21 14:44:00,
2013-04-21 08:49:00,45.1,32.2,25.19,NNW,337,6.0,9.6,60,0.00,,,-99.99,FreeWX 2.04,2013-04-21 14:49:00,
2013-04-21 08:54:00,45.5,32.4,25.19,NNW,340,6.0,8.3,60,0.00,,,-99.99,FreeWX 2.04,2013-04-21 14:54:00,
2013-04-21 08:59:00,45.9,32.4,25.19,NNW,337,5.0,8.3,59,0.00,,,-99.99,FreeWX 2.04,2013-04-21 14:59:00,
2013-04-21 09:04:00,46.6,33.1,25.19,NNW,334,5.0,7.4,59,0.00,,,-99.99,FreeWX 2.04,2013-04-21 15:04:00,
2013-04-21 09:09:00,46.2,31.8,25.19,NNW,335,5.0,6.7,57,0.00,,,-99.99,FreeWX 2.04,2013-04-21 15:09:00,
2013-04-21 09:14:00,46.6,32.2,25.19,NNW,336,5.0,6.9,57,0.00,,,-99.99,FreeWX 2.04,2013-04-21 15:14:00,
2013-04-21 09:19:00,47.3,33.3,25.19,NNW,337,5.0,7.4,58,0.00,,,-99.99,FreeWX 2.04,2013-04-21 15:19:00,
2013-04-21 09:24:00,47.5,33.1,25.19,NNW,330,5.0,6.9,57,0.00,,,-99.99,FreeWX 2.04,2013-04-21 15:24:00,
2013-04-21 09:29:00,46.9,32.0,25.19,NNW,334,5.0,8.7,56,0.00,,,-99.99,FreeWX 2.04,2013-04-21 15:29:00,
2013-04-21 09:34:00,48.0,33.1,25.19,NNW,336,5.0,6.7,56,0.00,,,-99.99,FreeWX 2.04,2013-04-21 15:34:00,
2013-04-21 09:39:00,48.6,32.2,25.16,NNW,333,5.0,8.3,53,0.00,,,-99.99,FreeWX 2.04,2013-04-21 15:39:00,
2013-04-21 09:44:00,48.0,31.6,25.16,NW,323,5.0,8.3,53,0.00,,,-99.99,FreeWX 2.04,2013-04-21 15:44:00,
2013-04-21 09:49:00,48.0,30.7,25.16,NNW,329,5.0,9.6,51,0.00,,,-99.99,FreeWX 2.04,2013-04-21 15:49:00,
2013-04-21 09:54:00,49.1,31.8,25.16,North,2,5.0,8.7,51,0.00,,,-99.99,FreeWX 2.04,2013-04-21 15:54:00,
2013-04-21 09:59:00,49.1,30.7,25.16,NNE,15,5.0,8.3,49,0.00,,,-99.99,FreeWX 2.04,2013-04-21 15:59:00,
2013-04-21 10:04:00,49.3,30.4,25.16,NNE,16,5.0,6.9,48,0.00,,,-99.99,FreeWX 2.04,2013-04-21 16:04:00,
2013-04-21 10:09:00,49.6,30.2,25.16,NNE,21,4.0,7.8,47,0.00,,,-99.99,FreeWX 2.04,2013-04-21 16:09:00,
2013-04-21 10:14:00,50.7,31.8,25.16,North,4,4.0,5.8,48,0.00,,,-99.99,FreeWX 2.04,2013-04-21 16:14:00,
2013-04-21 10:19:00,50.9,31.5,25.16,NW,324,4.0,6.7,47,0.00,,,-99.99,FreeWX 2.04,2013-04-21 16:19:00,
2013-04-21 10:24:00,50.7,27.9,25.16,NNW,343,5.0,8.3,41,0.00,,,-99.99,FreeWX 2.04,2013-04-21 16:24:00,
2013-04-21 10:29:00,51.6,30.4,25.16,North,4,5.0,7.4,44,0.00,,,-99.99,FreeWX 2.04,2013-04-21 16:29:00,
2013-04-21 10:34:00,52.3,32.2,25.16,NNW,331,4.0,9.2,46,0.00,,,-99.99,FreeWX 2.04,2013-04-21 16:34:00,
2013-04-21 10:39:00,52.0,29.7,25.16,WNW,298,4.0,6.7,42,0.00,,,-99.99,FreeWX 2.04,2013-04-21 16:39:00,
2013-04-21 10:44:00,52.3,31.1,25.16,WNW,287,4.0,8.7,44,0.00,,,-99.99,FreeWX 2.04,2013-04-21 16:44:00,
2013-04-21 10:49:00,53.2,30.2,25.16,NW,310,3.0,6.7,41,0.00,,,-99.99,FreeWX 2.04,2013-04-21 16:49:00,
2013-04-21 10:54:00,53.1,27.5,25.16,NNW,330,3.0,6.3,37,0.00,,,-99.99,FreeWX 2.04,2013-04-21 16:54:00,
2013-04-21 10:59:00,53.2,27.7,25.16,NW,316,4.0,6.7,37,0.00,,,-99.99,FreeWX 2.04,2013-04-21 16:59:00,
2013-04-21 11:04:00,53.1,27.5,25.16,NNW,337,4.0,6.9,37,0.00,,,-99.99,FreeWX 2.04,2013-04-21 17:04:00,
2013-04-21 11:09:00,54.1,29.1,25.16,NE,34,4.0,6.3,38,0.00,,,-99.99,FreeWX 2.04,2013-04-21 17:09:00,
2013-04-21 11:14:00,54.5,28.8,25.16,NE,48,4.0,6.7,37,0.00,,,-99.99,FreeWX 2.04,2013-04-21 17:14:00,
2013-04-21 11:19:00,55.0,25.7,25.16,NNE,26,3.0,7.4,32,0.00,,,-99.99,FreeWX 2.04,2013-04-21 17:19:00,
2013-04-21 11:24:00,54.7,27.0,25.16,NNE,32,4.0,7.4,34,0.00,,,-99.99,FreeWX 2.04,2013-04-21 17:24:00,
2013-04-21 11:29:00,55.2,28.8,25.16,NE,35,4.0,8.7,36,0.00,,,-99.99,FreeWX 2.04,2013-04-21 17:29:00,
2013-04-21 11:34:00,54.7,28.2,25.16,NW,321,4.0,9.2,36,0.00,,,-99.99,FreeWX 2.04,2013-04-21 17:34:00,
2013-04-21 11:39:00,54.5,27.5,25.16,WNW,288,4.0,7.4,35,0.00,,,-99.99,FreeWX 2.04,2013-04-21 17:39:00,
2013-04-21 11:44:00,55.6,28.4,25.16,WNW,301,4.0,6.9,35,0.00,,,-99.99,FreeWX 2.04,2013-04-21 17:44:00,
2013-04-21 11:49:00,55.0,26.4,25.16,NNW,330,4.0,8.3,33,0.00,,,-99.99,FreeWX 2.04,2013-04-21 17:49:00,
2013-04-21 11:55:00,55.8,26.4,25.16,NW,325,5.0,7.4,32,0.00,,,-99.99,FreeWX 2.04,2013-04-21 17:55:00,
2013-04-21 12:00:00,55.9,25.7,25.16,West,278,5.0,11.6,31,0.00,,,-99.99,FreeWX 2.04,2013-04-21 18:00:00,
2013-04-21 12:05:00,55.6,25.5,25.16,West,259,6.0,13.4,31,0.00,,,-99.99,FreeWX 2.04,2013-04-21 18:05:00,
2013-04-21 12:10:00,55.9,24.1,25.16,NW,309,5.0,7.8,29,0.00,,,-99.99,FreeWX 2.04,2013-04-21 18:10:00,
2013-04-21 12:15:00,55.4,22.8,25.16,North,349,4.0,7.8,28,0.00,,,-99.99,FreeWX 2.04,2013-04-21 18:15:00,
2013-04-21 12:20:00,55.9,25.0,25.16,NNW,334,4.0,9.2,30,0.00,,,-99.99,FreeWX 2.04,2013-04-21 18:20:00,
2013-04-21 12:25:00,56.7,24.8,25.13,West,276,6.0,14.3,29,0.00,,,-99.99,FreeWX 2.04,2013-04-21 18:25:00,
2013-04-21 12:30:00,56.5,23.7,25.13,South,191,7.0,12.5,28,0.00,,,-99.99,FreeWX 2.04,2013-04-21 18:30:00,
2013-04-21 12:35:00,56.8,24.1,25.13,SE,136,6.0,8.7,28,0.00,,,-99.99,FreeWX 2.04,2013-04-21 18:35:00,
2013-04-21 12:40:00,56.7,23.0,25.13,SSE,153,6.0,12.5,27,0.00,,,-99.99,FreeWX 2.04,2013-04-21 18:40:00,
2013-04-21 12:45:00,57.0,23.4,25.13,WSW,237,8.0,13.9,27,0.00,,,-99.99,FreeWX 2.04,2013-04-21 18:45:00,
2013-04-21 12:50:00,56.3,21.9,25.13,WSW,247,8.0,13.4,26,0.00,,,-99.99,FreeWX 2.04,2013-04-21 18:50:00,
2013-04-21 12:55:00,57.2,22.6,25.13,SW,217,7.0,12.5,26,0.00,,,-99.99,FreeWX 2.04,2013-04-21 18:55:00,
2013-04-21 13:00:00,57.7,22.1,25.13,South,186,7.0,11.6,25,0.00,,,-99.99,FreeWX 2.04,2013-04-21 19:00:00,
2013-04-21 13:05:00,57.6,22.1,25.13,SSW,198,6.0,13.9,25,0.00,,,-99.99,FreeWX 2.04,2013-04-21 19:05:00,
2013-04-21 13:10:00,57.4,21.9,25.13,SW,225,7.0,13.4,25,0.00,,,-99.99,FreeWX 2.04,2013-04-21 19:10:00,
2013-04-21 13:15:00,57.2,20.7,25.13,WSW,253,6.0,8.3,24,0.00,,,-99.99,FreeWX 2.04,2013-04-21 19:15:00,
2013-04-21 13:20:00,57.6,22.1,25.13,West,267,7.0,13.0,25,0.00,,,-99.99,FreeWX 2.04,2013-04-21 19:20:00,
2013-04-21 13:25:00,57.9,21.4,25.10,West,269,8.0,12.1,24,0.00,,,-99.99,FreeWX 2.04,2013-04-21 19:25:00,
2013-04-21 13:30:00,57.4,18.9,25.10,West,268,8.0,13.9,22,0.00,,,-99.99,FreeWX 2.04,2013-04-21 19:30:00,
2013-04-21 13:35:00,57.9,19.4,25.10,West,263,8.0,13.0,22,0.00,,,-99.99,FreeWX 2.04,2013-04-21 19:35:00,
2013-04-21 13:40:00,58.1,16.2,25.10,West,281,6.0,9.2,19,0.00,,,-99.99,FreeWX 2.04,2013-04-21 19:40:00,
2013-04-21 13:45:00,58.8,14.2,25.10,West,267,6.0,12.5,17,0.00,,,-99.99,FreeWX 2.04,2013-04-21 19:45:00,
2013-04-21 13:50:00,58.5,13.8,25.10,SSW,213,7.0,12.5,17,0.00,,,-99.99,FreeWX 2.04,2013-04-21 19:50:00,
2013-04-21 13:55:00,59.2,14.4,25.10,WSW,258,6.0,11.6,17,0.00,,,-99.99,FreeWX 2.04,2013-04-21 19:55:00,
2013-04-21 14:00:00,58.6,9.7,25.10,West,269,6.0,13.0,14,0.00,,,-99.99,FreeWX 2.04,2013-04-21 20:00:00,
2013-04-21 14:05:00,59.7,7.0,25.10,WSW,243,8.0,19.9,12,0.00,,,-99.99,FreeWX 2.04,2013-04-21 20:05:00,
2013-04-21 14:10:00,60.3,10.9,25.10,SW,230,8.0,11.0,14,0.00,,,-99.99,FreeWX 2.04,2013-04-21 20:10:00,
2013-04-21 14:15:00,61.0,6.1,25.10,WSW,242,6.0,10.5,11,0.00,,,-99.99,FreeWX 2.04,2013-04-21 20:15:00,
2013-04-21 14:20:00,60.6,5.9,25.10,SSW,213,7.0,11.2,11,0.00,,,-99.99,FreeWX 2.04,2013-04-21 20:20:00,
2013-04-21 14:25:00,60.4,-99.9,25.07,SW,223,7.0,12.5,-999,0.00,,,-99.99,FreeWX 2.04,2013-04-21 20:25:00,
2013-04-21 14:30:00,61.0,-99.9,25.07,SSW,207,6.0,12.1,-999,0.00,,,-99.99,FreeWX 2.04,2013-04-21 20:30:00,
2013-04-21 14:35:00,61.3,6.4,25.07,South,191,7.0,14.3,11,0.00,,,-99.99,FreeWX 2.04,2013-04-21 20:35:00,
2013-04-21 14:40:00,60.6,-99.9,25.07,SW,226,7.0,12.5,-999,0.00,,,-99.99,FreeWX 2.04,2013-04-21 20:40:00,
2013-04-21 14:45:00,60.6,-99.9,25.07,SW,232,8.0,15.4,-999,0.00,,,-99.99,FreeWX 2.04,2013-04-21 20:45:00,
2013-04-21 14:50:00,60.8,-99.9,25.07,West,280,7.0,11.6,-999,0.00,,,-99.99,FreeWX 2.04,2013-04-21 20:50:00,
2013-04-21 14:55:00,61.2,-99.9,25.07,NW,308,7.0,13.9,-999,0.00,,,-99.99,FreeWX 2.04,2013-04-21 20:55:00,
2013-04-21 15:00:00,61.3,6.4,25.07,West,273,9.0,16.3,11,0.00,,,-99.99,FreeWX 2.04,2013-04-21 21:00:00,
2013-04-21 15:05:00,62.4,7.2,25.07,West,277,8.0,9.6,11,0.00,,,-99.99,FreeWX 2.04,2013-04-21 21:05:00,
2013-04-21 15:10:00,62.2,-99.9,25.07,West,268,8.0,15.4,-999,0.00,,,-99.99,FreeWX 2.04,2013-04-21 21:10:00,
2013-04-21 15:15:00,62.1,-99.9,25.07,WSW,254,9.0,13.9,-999,0.00,,,-99.99,FreeWX 2.04,2013-04-21 21:15:00,
2013-04-21 15:20:00,61.9,-99.9,25.07,West,260,9.0,17.7,-999,0.00,,,-99.99,FreeWX 2.04,2013-04-21 21:20:00,
2013-04-21 15:25:00,62.6,-99.9,25.04,WSW,253,9.0,12.5,-999,0.00,,,-99.99,FreeWX 2.04,2013-04-21 21:25:00,
2013-04-21 15:30:00,63.1,-99.9,25.04,WNW,282,7.0,11.6,-999,0.00,,,-99.99,FreeWX 2.04,2013-04-21 21:30:00,
2013-04-21 15:35:00,62.2,-99.9,25.04,NNW,344,8.0,14.3,-999,0.00,,,-99.99,FreeWX 2.04,2013-04-21 21:35:00,
2013-04-21 15:40:00,63.0,-99.9,25.04,North,356,9.0,14.8,-999,0.00,,,-99.99,FreeWX 2.04,2013-04-21 21:40:00,
2013-04-21 15:45:00,63.1,-99.9,25.04,North,351,9.0,12.5,-999,0.00,,,-99.99,FreeWX 2.04,2013-04-21 21:45:00,
2013-04-21 15:50:00,64.0,-99.9,25.04,NW,322,9.0,21.5,-999,0.00,,,-99.99,FreeWX 2.04,2013-04-21 21:50:00,
2013-04-21 15:55:00,63.5,-99.9,25.04,West,266,11.0,20.6,-999,0.00,,,-99.99,FreeWX 2.04,2013-04-21 21:55:00,
2013-04-21 16:00:00,64.0,-99.9,25.04,SW,234,10.0,12.1,-999,0.00,,,-99.99,FreeWX 2.04,2013-04-21 22:00:00,
2013-04-21 16:05:00,63.9,-99.9,25.04,SW,234,7.0,13.9,-999,0.00,,,-99.99,FreeWX 2.04,2013-04-21 22:05:00,
2013-04-21 16:10:00,63.7,-99.9,25.04,WSW,256,8.0,15.2,-999,0.00,,,-99.99,FreeWX 2.04,2013-04-21 22:10:00,
2013-04-21 16:15:00,63.1,-99.9,25.04,WNW,298,7.0,13.0,-999,0.00,,,-99.99,FreeWX 2.04,2013-04-21 22:15:00,
2013-04-21 16:20:00,64.2,-99.9,25.04,NNE,26,7.0,13.4,-999,0.00,,,-99.99,FreeWX 2.04,2013-04-21 22:20:00,
2013-04-21 16:25:00,65.3,-99.9,25.01,NE,34,7.0,15.2,-999,0.00,,,-99.99,FreeWX 2.04,2013-04-21 22:25:00,
2013-04-21 16:30:00,65.7,-99.9,25.01,NE,43,6.0,6.7,-999,0.00,,,-99.99,FreeWX 2.04,2013-04-21 22:30:00,
2013-04-21 16:36:00,65.7,-99.9,25.01,East,79,3.0,7.4,-999,0.00,,,-99.99,FreeWX 2.04,2013-04-21 22:36:00,
2013-04-21 16:41:00,65.8,-99.9,25.01,SW,223,3.0,7.4,-999,0.00,,,-99.99,FreeWX 2.04,2013-04-21 22:41:00,
2013-04-21 16:46:00,64.8,-99.9,25.01,WNW,294,4.0,8.3,-999,0.00,,,-99.99,FreeWX 2.04,2013-04-21 22:46:00,
2013-04-21 16:51:00,65.8,-99.9,25.01,North,1,6.0,13.4,-999,0.00,,,-99.99,FreeWX 2.04,2013-04-21 22:51:00,
2013-04-21 16:56:00,65.3,-99.9,25.01,NE,43,7.0,14.8,-999,0.00,,,-99.99,FreeWX 2.04,2013-04-21 22:56:00,
2013-04-21 17:01:00,64.6,-99.9,25.01,NE,37,6.0,9.6,-999,0.00,,,-99.99,FreeWX 2.04,2013-04-21 23:01:00,
2013-04-21 17:06:00,66.0,-99.9,25.01,NE,44,5.0,10.5,-999,0.00,,,-99.99,FreeWX 2.04,2013-04-21 23:06:00,
2013-04-21 17:11:00,66.7,-99.9,25.01,ENE,75,7.0,14.3,-999,0.00,,,-99.99,FreeWX 2.04,2013-04-21 23:11:00,
2013-04-21 17:16:00,66.6,-99.9,25.01,East,89,8.0,13.9,-999,0.00,,,-99.99,FreeWX 2.04,2013-04-21 23:16:00,
2013-04-21 17:21:00,66.6,-99.9,25.01,ENE,76,7.0,12.1,-999,0.00,,,-99.99,FreeWX 2.04,2013-04-21 23:21:00,
2013-04-21 17:26:00,66.2,-99.9,25.01,East,91,8.0,15.4,-999,0.00,,,-99.99,FreeWX 2.04,2013-04-21 23:26:00,
2013-04-21 17:31:00,66.7,-99.9,25.01,ESE,103,10.0,15.4,-999,0.00,,,-99.99,FreeWX 2.04,2013-04-21 23:31:00,
2013-04-21 17:36:00,66.4,-99.9,25.01,East,99,11.0,22.4,-999,0.00,,,-99.99,FreeWX 2.04,2013-04-21 23:36:00,
2013-04-21 17:41:00,65.7,-99.9,25.01,SE,125,11.0,19.0,-999,0.00,,,-99.99,FreeWX 2.04,2013-04-21 23:41:00,
2013-04-21 17:46:00,65.5,-99.9,25.01,SE,129,11.0,18.1,-999,0.00,,,-99.99,FreeWX 2.04,2013-04-21 23:46:00,
2013-04-21 17:51:00,65.7,-99.9,25.01,ESE,109,11.0,14.8,-999,0.00,,,-99.99,FreeWX 2.04,2013-04-21 23:51:00,
2013-04-21 17:56:00,66.4,-99.9,25.01,East,99,9.0,14.3,-999,0.00,,,-99.99,FreeWX 2.04,2013-04-21 23:56:00,
2013-04-21 18:01:00,66.2,-99.9,25.01,ESE,102,8.0,13.9,-999,0.00,,,-99.99,FreeWX 2.04,2013-04-22 00:01:00,
2013-04-21 18:06:00,65.7,-99.9,25.01,SE,125,8.0,17.7,-999,0.00,,,-99.99,FreeWX 2.04,2013-04-22 00:06:00,
2013-04-21 18:11:00,65.3,-99.9,25.01,SE,137,10.0,16.3,-999,0.00,,,-99.99,FreeWX 2.04,2013-04-22 00:11:00,
2013-04-21 18:16:00,65.3,-99.9,25.01,ESE,108,12.0,19.0,-999,0.00,,,-99.99,FreeWX 2.04,2013-04-22 00:16:00,
2013-04-21 18:21:00,65.5,-99.9,25.01,East,96,12.0,17.7,-999,0.00,,,-99.99,FreeWX 2.04,2013-04-22 00:21:00,
2013-04-21 18:26:00,65.3,-99.9,25.01,East,100,9.0,12.1,-999,0.00,,,-99.99,FreeWX 2.04,2013-04-22 00:26:00,
2013-04-21 18:31:00,64.8,-99.9,25.01,ESE,117,9.0,16.3,-999,0.00,,,-99.99,FreeWX 2.04,2013-04-22 00:31:00,
2013-04-21 18:36:00,64.8,-99.9,25.01,SE,126,10.0,16.3,-999,0.00,,,-99.99,FreeWX 2.04,2013-04-22 00:36:00,
2013-04-21 18:41:00,64.8,-99.9,25.01,East,96,10.0,15.2,-999,0.00,,,-99.99,FreeWX 2.04,2013-04-22 00:41:00,
2013-04-21 18:46:00,64.4,-99.9,25.01,ESE,103,10.0,18.1,-999,0.00,,,-99.99,FreeWX 2.04,2013-04-22 00:46:00,
2013-04-21 18:51:00,64.6,-99.9,25.01,ESE,109,9.0,13.0,-999,0.00,,,-99.99,FreeWX 2.04,2013-04-22 00:51:00,
2013-04-21 18:56:00,64.6,-99.9,24.98,East,97,7.0,11.2,-999,0.00,,,-99.99,FreeWX 2.04,2013-04-22 00:56:00,
2013-04-21 19:01:00,64.4,-99.9,24.98,East,99,7.0,11.6,-999,0.00,,,-99.99,FreeWX 2.04,2013-04-22 01:01:00,
2013-04-21 19:06:00,64.2,-99.9,24.98,East,97,6.0,10.1,-999,0.00,,,-99.99,FreeWX 2.04,2013-04-22 01:06:00,
2013-04-21 19:11:00,64.2,-99.9,25.01,East,101,6.0,15.2,-999,0.00,,,-99.99,FreeWX 2.04,2013-04-22 01:11:00,
2013-04-21 19:16:00,64.0,-99.9,25.01,ESE,118,5.0,6.7,-999,0.00,,,-99.99,FreeWX 2.04,2013-04-22 01:16:00,
2013-04-21 19:21:00,63.7,-99.9,25.01,SE,132,4.0,6.9,-999,0.00,,,-99.99,FreeWX 2.04,2013-04-22 01:21:00,
2013-04-21 19:26:00,62.8,-99.9,25.01,SSE,159,5.0,12.1,-999,0.00,,,-99.99,FreeWX 2.04,2013-04-22 01:26:00,
2013-04-21 19:31:00,62.8,-99.9,25.01,SSE,160,6.0,13.0,-999,0.00,,,-99.99,FreeWX 2.04,2013-04-22 01:31:00,
2013-04-21 19:36:00,62.4,-99.9,25.01,SE,137,4.0,4.9,-999,0.00,,,-99.99,FreeWX 2.04,2013-04-22 01:36:00,
2013-04-21 19:41:00,62.1,-99.9,25.01,SE,134,2.0,4.9,-999,0.00,,,-99.99,FreeWX 2.04,2013-04-22 01:41:00,
2013-04-21 19:46:00,61.9,-99.9,25.01,SE,126,2.0,5.8,-999,0.00,,,-99.99,FreeWX 2.04,2013-04-22 01:46:00,
2013-04-21 19:51:00,61.9,-99.9,25.01,ESE,115,4.0,8.7,-999,0.00,,,-99.99,FreeWX 2.04,2013-04-22 01:51:00,
2013-04-21 19:56:00,61.3,-99.9,25.01,ESE,103,5.0,6.9,-999,0.00,,,-99.99,FreeWX 2.04,2013-04-22 01:56:00,
2013-04-21 20:01:00,60.8,-99.9,25.01,East,91,5.0,8.7,-999,0.00,,,-99.99,FreeWX 2.04,2013-04-22 02:01:00,
2013-04-21 20:06:00,60.4,-99.9,25.01,East,84,5.0,7.8,-999,0.00,,,-99.99,FreeWX 2.04,2013-04-22 02:06:00,
2013-04-21 20:11:00,59.9,-99.9,25.01,East,81,5.0,7.8,-999,0.00,,,-99.99,FreeWX 2.04,2013-04-22 02:11:00,
2013-04-21 20:16:00,59.9,-99.9,25.01,East,85,5.0,9.2,-999,0.00,,,-99.99,FreeWX 2.04,2013-04-22 02:16:00,
2013-04-21 20:21:00,59.7,-99.9,25.01,East,88,6.0,10.1,-999,0.00,,,-99.99,FreeWX 2.04,2013-04-22 02:21:00,
2013-04-21 20:26:00,59.7,-99.9,25.01,East,88,6.0,9.6,-999,0.00,,,-99.99,FreeWX 2.04,2013-04-22 02:26:00,
2013-04-21 20:31:00,59.5,-99.9,25.01,East,83,6.0,8.7,-999,0.00,,,-99.99,FreeWX 2.04,2013-04-22 02:31:00,
2013-04-21 20:36:00,59.4,-99.9,25.01,East,80,6.0,8.7,-999,0.00,,,-99.99,FreeWX 2.04,2013-04-22 02:36:00,
2013-04-21 20:41:00,59.2,-99.9,25.01,East,80,6.0,7.4,-999,0.00,,,-99.99,FreeWX 2.04,2013-04-22 02:41:00,
2013-04-21 20:46:00,58.8,-99.9,25.01,East,79,5.0,6.9,-999,0.00,,,-99.99,FreeWX 2.04,2013-04-22 02:46:00,
2013-04-21 20:51:00,58.3,-99.9,25.01,East,83,5.0,8.7,-999,0.00,,,-99.99,FreeWX 2.04,2013-04-22 02:51:00,
2013-04-21 20:56:00,58.3,-99.9,25.01,East,81,6.0,8.7,-999,0.00,,,-99.99,FreeWX 2.04,2013-04-22 02:56:00,
2013-04-21 21:01:00,58.3,-99.9,25.01,ENE,78,6.0,9.6,-999,0.00,,,-99.99,FreeWX 2.04,2013-04-22 03:01:00,
2013-04-21 21:06:00,58.1,-99.9,25.01,East,85,6.0,8.3,-999,0.00,,,-99.99,FreeWX 2.04,2013-04-22 03:06:00,
2013-04-21 21:11:00,57.6,-99.9,25.01,East,92,5.0,7.4,-999,0.00,,,-99.99,FreeWX 2.04,2013-04-22 03:11:00,
2013-04-21 21:16:00,56.5,-99.9,25.01,ESE,106,4.0,6.3,-999,0.00,,,-99.99,FreeWX 2.04,2013-04-22 03:16:00,
2013-04-21 21:22:00,56.1,-99.9,25.01,SE,132,6.0,7.8,-999,0.00,,,-99.99,FreeWX 2.04,2013-04-22 03:22:00,
2013-04-21 21:27:00,56.5,-99.9,25.01,SE,144,6.0,7.8,-999,0.00,,,-99.99,FreeWX 2.04,2013-04-22 03:27:00,
2013-04-21 21:32:00,57.0,-99.9,25.01,SE,137,6.0,9.2,-999,0.00,,,-99.99,FreeWX 2.04,2013-04-22 03:32:00,
2013-04-21 21:37:00,57.6,-99.9,25.01,SE,130,7.0,9.6,-999,0.00,,,-99.99,FreeWX 2.04,2013-04-22 03:37:00,
2013-04-21 21:42:00,57.7,-99.9,25.01,ESE,123,6.0,6.9,-999,0.00,,,-99.99,FreeWX 2.04,2013-04-22 03:42:00,
2013-04-21 21:47:00,57.6,-99.9,25.01,ESE,112,4.0,7.4,-999,0.00,,,-99.99,FreeWX 2.04,2013-04-22 03:47:00,
2013-04-21 21:52:00,57.6,-99.9,25.01,East,100,5.0,8.3,-999,0.00,,,-99.99,FreeWX 2.04,2013-04-22 03:52:00,
2013-04-21 21:57:00,57.6,-99.9,25.01,East,90,6.0,8.7,-999,0.00,,,-99.99,FreeWX 2.04,2013-04-22 03:57:00,
2013-04-21 22:02:00,57.7,-99.9,25.01,East,83,6.0,10.1,-999,0.00,,,-99.99,FreeWX 2.04,2013-04-22 04:02:00,
2013-04-21 22:07:00,57.7,-99.9,25.01,East,80,7.0,9.6,-999,0.00,,,-99.99,FreeWX 2.04,2013-04-22 04:07:00,
2013-04-21 22:12:00,57.6,-99.9,25.01,ENE,76,6.0,10.5,-999,0.00,,,-99.99,FreeWX 2.04,2013-04-22 04:12:00,
2013-04-21 22:17:00,57.6,-99.9,25.01,ENE,77,7.0,10.5,-999,0.00,,,-99.99,FreeWX 2.04,2013-04-22 04:17:00,
2013-04-21 22:22:00,57.6,-99.9,25.01,East,88,6.0,7.8,-999,0.00,,,-99.99,FreeWX 2.04,2013-04-22 04:22:00,
2013-04-21 22:27:00,57.7,-99.9,25.01,East,95,6.0,8.3,-999,0.00,,,-99.99,FreeWX 2.04,2013-04-22 04:27:00,
2013-04-21 22:32:00,57.9,-99.9,25.01,East,86,6.0,7.8,-999,0.00,,,-99.99,FreeWX 2.04,2013-04-22 04:32:00,
2013-04-21 22:37:00,57.9,-99.9,25.01,East,83,5.0,7.8,-999,0.00,,,-99.99,FreeWX 2.04,2013-04-22 04:37:00,
2013-04-21 22:42:00,57.9,-99.9,25.01,East,94,3.0,6.3,-999,0.00,,,-99.99,FreeWX 2.04,2013-04-22 04:42:00,
2013-04-21 22:47:00,58.3,-99.9,25.01,ESE,105,4.0,9.6,-999,0.00,,,-99.99,FreeWX 2.04,2013-04-22 04:47:00,
2013-04-21 22:52:00,58.6,-99.9,25.01,ESE,119,7.0,11.0,-999,0.00,,,-99.99,FreeWX 2.04,2013-04-22 04:52:00,
2013-04-21 22:57:00,58.6,-99.9,24.98,ESE,115,6.0,8.3,-999,0.00,,,-99.99,FreeWX 2.04,2013-04-22 04:57:00,
2013-04-21 23:02:00,57.7,-99.9,24.98,SE,142,4.0,6.3,-999,0.00,,,-99.99,FreeWX 2.04,2013-04-22 05:02:00,
2013-04-21 23:07:00,57.2,-99.9,24.98,SW,221,4.0,6.9,-999,0.00,,,-99.99,FreeWX 2.04,2013-04-22 05:07:00,
2013-04-21 23:12:00,57.6,-99.9,25.01,SW,234,6.0,11.2,-999,0.00,,,-99.99,FreeWX 2.04,2013-04-22 05:12:00,
2013-04-21 23:17:00,57.9,-99.9,25.01,SSW,212,8.0,12.5,-999,0.00,,,-99.99,FreeWX 2.04,2013-04-22 05:17:00,
2013-04-21 23:22:00,57.7,-99.9,25.01,SSW,200,8.0,10.1,-999,0.00,,,-99.99,FreeWX 2.04,2013-04-22 05:22:00,
2013-04-21 23:27:00,57.2,-99.9,25.01,SSW,212,6.0,8.7,-999,0.00,,,-99.99,FreeWX 2.04,2013-04-22 05:27:00,
2013-04-21 23:32:00,56.8,-99.9,25.01,SW,221,5.0,7.4,-999,0.00,,,-99.99,FreeWX 2.04,2013-04-22 05:32:00,
2013-04-21 23:37:00,56.8,-99.9,25.01,WSW,240,4.0,4.9,-999,0.00,,,-99.99,FreeWX 2.04,2013-04-22 05:37:00,
2013-04-21 23:42:00,56.3,-99.9,24.98,West,261,2.0,6.9,-999,0.00,,,-99.99,FreeWX 2.04,2013-04-22 05:42:00,
2013-04-21 23:47:00,56.1,-99.9,24.98,NNW,337,4.0,8.3,-999,0.00,,,-99.99,FreeWX 2.04,2013-04-22 05:47:00,
2013-04-21 23:52:00,56.3,-99.9,24.98,North,3,5.0,5.8,-999,0.00,,,-99.99,FreeWX 2.04,2013-04-22 05:52:00,
2013-04-21 23:57:00,55.8,-99.9,24.98,North,0,4.0,4.5,-999,0.00,,,-99.99,FreeWX 2.04,2013-04-22 05:57:00,